User: anonymous   Login
Location: Ottawa
(45.4170°N, 75.7000°W)
Time: 03:47:30
(UTC-04:00)
Language:

Aureole 3 Rocket - Orbit

View from above orbital plane
View from above orbital plane
View from above satellite
View from above satellite

Ground track
Ground track

The orbit data is extracted from the following two-line orbital elements,

1 12849U 81094B   15146.71807292  .00000334  00000-0  31004-4 0  9991
2 12849 082.4951 023.8223 0905938 277.0600 072.8491 13.49198934640418
Epoch (UTC): 26 May 2015 17:14:01
Eccentricity: 0.0905938
inclination: 82.4951°
perigee height: 400 km
apogee height: 1750 km
right ascension of ascending node: 23.8223°
argument of perigee: 277.0600°
revolutions per day: 13.49198934
mean anomaly at epoch: 72.8491°
orbit number at epoch: 64041

The dashed part of the orbit path shows where the satellite is in the earth's shadow,  

DLR